Wind_Speed
85 82 79 75 71 70 65 66 70 77 77 69 66 68 72 78 73 68 67 64 61 58 55 58 57 53 48 50 45 42 42 39 39 40 43 38 36 31 30 30 31 35 35
91 89 84 80 76 73 72 71 72 74 78 82 75 71 70 74 77 74 72 67 65 60 59 59 62 57 58 54 57 50 48 46 43 45 44 46 43 39 38 42 38 36 37
89 88 85 84 79 77 74 72 75 76 77 80 82 76 73 73 74 76 78 73 69 62 60 63 63 60 60 58 59 58 57 51 50 49 48 49 51 48 41 36 35 38 42
94 92 88 85 85 83 78 75 74 76 77 80 80 82 77 76 75 78 78 80 79 77 70 66 67 64 63 62 60 57 56 57 52 53 55 52 52 51 53 49 43 42 43
101 95 93 89 86 86 84 81 78 78 79 79 79 82 84 81 79 80 82 81 80 79 76 75 71 66 64 66 65 64 61 60 58 57 57 57 57 57 56 54 53 49 48
104 102 98 95 91 88 86 83 82 82 83 85 82 81 84 87 86 84 83 82 81 79 78 81 76 74 69 70 69 67 66 62 61 61 60 59 56 56 60 58 52 51 48
104 105 105 101 98 94 89 90 86 84 85 87 89 85 83 89 92 90 87 81 86 84 81 82 79 79 78 73 72 72 71 69 63 62 62 61 59 59 54 50 49 50 52
106 104 104 101 98 93 90 86 83 84 85 88 91 90 89 87 95 96 94 88 84 87 84 84 82 79 76 77 78 76 76 74 70 69 69 65 60 63 62 62 60 56 55
105 105 103 99 94 89 83 78 78 79 81 85 90 95 95 91 91 98 98 94 88 82 89 90 87 85 82 83 85 84 81 78 78 76 75 71 67 65 65 67 67 66 58
97 98 91 85 85 82 76 73 71 73 73 76 80 87 93 96 94 93 101 97 93 91 84 86 91 95 93 94 94 90 86 82 84 84 79 76 72 67 66 68 71 65 64
83 82 74 72 75 77 74 71 68 67 69 69 72 75 78 81 87 90 95 105 103 101 96 92 88 93 97 98 98 92 88 87 86 87 86 80 77 72 71 74 73 71 66
54 54 54 58 66 71 71 69 67 64 64 64 64 65 66 66 74 87 93 99 108 107 105 99 101 98 92 104 104 98 93 91 89 88 87 85 84 79 80 81 79 77 75
33 38 43 47 57 66 69 69 67 64 65 65 65 66 64 63 64 76 87 97 103 111 108 109 104 103 105 111 105 103 96 93 92 87 83 82 83 85 86 84 82 82 80
28 36 42 48 54 61 66 69 71 68 66 71 70 70 70 69 65 68 75 86 99 105 111 114 115 109 108 102 104 104 100 104 99 96 90 88 86 87 86 91 88 88 87
23 31 38 44 51 59 65 70 71 72 71 72 73 73 71 72 72 72 72 78 86 100 106 115 118 119 115 116 110 108 107 102 98 98 96 91 92 93 91 94 96 94 93
11 24 36 44 51 56 61 65 68 72 75 76 76 76 76 76 77 76 76 78 82 86 98 108 115 120 122 119 117 111 102 102 97 96 100 100 93 93 94 98 98 97 93
13 17 22 29 37 45 53 60 66 70 73 75 78 79 80 81 81 82 82 81 84 86 89 95 106 114 123 125 127 122 119 118 108 100 96 92 92 90 93 96 101 100 96
18 22 25 26 30 34 38 45 52 59 67 72 75 77 80 83 84 85 86 87 88 89 88 89 92 100 108 116 122 128 128 126 120 121 111 99 102 97 92 94 96 99 100
25 27 29 32 33 36 39 41 45 48 52 55 60 68 71 74 76 78 80 82 85 88 89 87 86 88 86 85 92 102 116 121 122 123 118 117 122 108 105 102 100 99 101
27 31 34 34 34 37 40 41 44 48 50 53 56 58 60 62 64 65 66 69 74 76 77 77 80 81 84 86 88 90 91 93 106 113 119 118 117 115 110 103 100 101 104
21 22 26 30 35 39 40 41 44 48 52 53 56 58 59 63 65 66 64 65 67 70 74 75 79 84 85 86 89 89 84 83 84 90 97 109 111 112 111 108 100 100 102
31 30 28 27 26 29 32 37 42 46 51 54 56 59 62 65 66 68 70 72 73 73 74 75 76 79 83 84 85 85 80 79 79 81 84 93 100 104 107 106 105 103 102
29 24 21 23 25 28 32 34 35 36 38 41 46 51 56 61 66 70 72 75 77 77 79 78 77 75 77 73 74 78 78 77 78 81 82 86 89 92 97 103 107 107 107
35 33 27 23 22 22 26 31 35 39 41 43 41 38 41 47 52 56 63 69 75 77 79 79 79 79 75 70 71 78 80 80 81 82 83 85 89 92 98 105 109 111 111
42 39 32 32 29 26 25 24 26 28 34 39 44 46 45 40 39 44 50 54 59 65 72 76 77 78 79 78 76 75 81 83 85 87 88 88 92 93 96 99 102 106 108
51 54 52 49 48 43 38 36 30 26 27 30 33 36 40 45 47 42 39 44 49 53 57 63 70 75 78 80 80 80 81 85 91 91 91 94 95 96 99 102 104 106 108
Wind_Direction
234 232 231 230 231 231 232 237 239 238 236 235 237 240 243 242 239 238 238 241 243 243 245 248 249 253 258 255 252 252 258 259 261 262 267 276 280 277 286 294 300 302 309
232 232 232 234 231 237 236 235 236 239 238 238 236 238 241 241 240 237 236 239 242 242 245 248 249 253 256 260 257 253 254 254 259 264 266 269 273 278 279 295 293 302 306
235 235 233 233 233 237 241 242 240 239 239 238 238 235 236 240 241 239 237 235 236 240 241 242 242 251 254 257 258 267 267 262 263 262 263 268 273 278 283 285 288 300 304
240 241 238 236 236 237 240 245 246 245 244 242 240 238 234 236 239 240 239 238 237 238 238 241 243 247 250 253 254 258 258 261 265 265 264 265 268 274 279 282 289 293 298
241 241 243 241 238 239 241 243 245 247 247 244 242 240 236 234 236 239 238 237 238 239 240 239 240 243 245 249 251 254 255 259 263 268 266 268 273 271 275 283 283 288 293
240 242 242 244 244 242 242 245 248 249 248 244 242 241 238 234 234 236 237 240 236 238 236 238 239 243 245 248 249 252 256 258 261 266 267 268 270 272 275 278 282 280 288
236 240 242 243 244 246 247 248 249 249 247 245 244 241 240 236 234 234 232 235 238 236 235 237 242 242 244 247 250 253 256 257 259 262 264 266 267 272 274 274 281 287 284
233 234 237 239 241 242 244 247 249 249 247 245 246 244 241 240 235 234 235 232 237 238 237 234 237 240 244 248 250 251 253 256 257 261 262 261 263 268 274 273 277 283 287
233 231 231 235 237 240 241 244 247 248 248 247 246 246 244 241 241 235 236 235 233 236 239 237 237 239 243 245 250 251 252 255 256 258 263 259 261 264 271 276 277 280 280
236 239 235 234 236 238 240 242 245 247 248 249 248 248 248 244 243 240 236 237 236 234 236 240 244 242 245 247 251 251 253 252 254 258 259 262 260 264 270 271 273 278 278
239 244 244 239 234 236 238 241 245 248 249 248 248 248 247 246 244 241 239 237 236 236 235 236 242 242 243 248 251 252 251 252 254 256 258 259 261 263 265 267 269 276 279
236 234 233 233 232 234 236 239 243 248 248 246 245 246 247 248 244 241 240 240 239 236 236 239 239 241 246 247 248 248 247 248 252 255 257 258 260 259 262 264 269 275 278
220 220 220 223 229 232 235 237 240 244 244 245 245 246 245 246 244 245 243 241 241 240 237 238 239 240 241 248 251 252 252 249 252 252 256 258 260 260 261 265 268 272 275
213 213 216 220 224 229 232 235 238 242 243 243 244 245 244 246 246 246 245 244 244 243 239 239 239 241 241 245 248 249 249 250 255 252 253 257 259 260 263 264 267 271 272
219 217 220 225 229 232 234 235 238 240 242 244 245 246 245 245 246 247 248 247 246 245 245 242 241 241 242 243 244 250 251 252 252 252 254 254 257 258 262 266 268 271 272
228 235 233 232 231 235 239 241 243 244 245 246 247 246 246 246 246 246 246 248 249 248 248 246 245 244 245 245 244 245 249 254 253 251 253 257 258 258 261 265 268 270 272
234 247 246 250 250 252 252 249 246 247 248 248 249 249 249 247 247 247 247 249 250 251 251 250 248 249 247 249 247 247 248 250 254 256 256 256 258 257 258 262 263 265 267
250 239 246 248 252 250 250 251 252 253 253 252 253 255 256 255 254 253 254 254 254 256 256 257 256 255 255 254 254 254 254 251 251 254 259 258 257 260 263 260 262 264 265
292 281 271 263 255 251 251 254 256 257 257 257 260 260 260 260 261 261 262 260 259 260 261 263 265 264 264 263 261 261 260 257 254 254 254 256 258 259 262 264 264 264 265
291 290 288 287 285 281 276 272 267 266 263 262 263 264 264 265 265 262 260 261 261 261 260 261 262 264 263 263 263 264 263 262 257 254 253 256 257 259 260 264 264 265 265
339 318 302 293 289 288 284 280 277 274 272 269 267 266 264 266 266 265 264 264 263 263 262 262 262 262 263 264 265 268 266 261 255 251 252 252 255 258 259 260 262 263 264
8 1 352 341 326 311 301 294 289 284 281 276 271 266 264 262 262 264 265 266 268 269 268 268 268 268 268 270 269 268 264 255 248 245 245 248 250 254 257 259 261 262 263
22 12 355 342 334 327 320 317 314 310 302 295 288 282 276 271 268 266 263 262 261 262 264 267 269 271 271 270 267 263 259 252 247 246 245 246 247 250 254 256 260 263 265
20 20 13 357 351 332 316 313 313 314 314 313 310 304 294 285 279 273 269 266 264 263 262 261 262 264 267 268 265 261 257 256 251 249 249 248 247 250 252 254 256 258 263
9 7 1 1 357 357 351 334 320 313 308 307 308 311 313 310 300 290 281 277 272 268 263 261 261 260 261 262 263 263 259 256 256 253 252 251 250 251 253 255 258 260 264
1 0 359 0 360 356 355 352 344 325 316 309 310 312 311 312 313 311 302 291 282 276 271 267 263 261 259 259 259 259 257 256 256 256 256 255 254 254 255 257 259 261 263
Height
10595 10601 10605 10610 10618 10623 10631 10637 10641 10645 10656 10663 10670 10676 10681 10688 10696 10703 10708 10714 10716 10720 10723 10725 10728 10732 10735 10735 10736 10735 10735 10733 10731 10732 10730 10730 10728 10725 10723 10720 10717 10714 10709
10569 10581 10591 10599 10605 10609 10616 10621 10626 10631 10638 10645 10653 10661 10666 10671 10678 10686 10693 10698 10703 10707 10711 10714 10717 10720 10723 10724 10724 10723 10724 10724 10722 10720 10720 10717 10717 10717 10714 10713 10707 10705 10702
10555 10565 10576 10584 10591 10596 10601 10607 10613 10617 10622 10628 10635 10644 10651 10655 10662 10669 10675 10682 10688 10693 10697 10701 10703 10707 10709 10709 10710 10712 10712 10712 10712 10711 10708 10707 10704 10703 10704 10702 10701 10697 10692
10536 10545 10556 10565 10571 10578 10583 10591 10597 10602 10607 10613 10620 10628 10635 10641 10648 10651 10657 10665 10671 10676 10682 10686 10689 10693 10695 10697 10699 10699 10699 10700 10700 10701 10699 10697 10695 10692 10690 10690 10689 10687 10683
10514 10526 10534 10543 10552 10559 10564 10572 10578 10583 10589 10595 10601 10609 10616 10624 10630 10635 10640 10645 10652 10658 10665 10670 10673 10677 10680 10683 10685 10686 10687 10688 10689 10689 10689 10687 10685 10681 10680 10680 10678 10676 10672
10492 10503 10512 10521 10530 10538 10546 10556 10560 10567 10570 10574 10582 10588 10596 10604 10610 10614 10621 10629 10635 10641 10647 10653 10657 10661 10663 10666 10671 10672 10674 10676 10676 10676 10675 10676 10673 10671 10668 10668 10666 10664 10662
10468 10477 10487 10498 10508 10519 10529 10531 10539 10545 10548 10556 10561 10570 10576 10582 10588 10593 10601 10609 10615 10622 10630 10636 10640 10645 10646 10650 10653 10656 10659 10660 10661 10660 10662 10661 10660 10658 10655 10656 10653 10653 10648
10439 10454 10463 10474 10486 10497 10507 10515 10521 10524 10531 10537 10542 10549 10557 10562 10566 10572 10577 10588 10597 10605 10612 10617 10622 10627 10630 10632 10634 10639 10642 10644 10645 10644 10647 10647 10646 10643 10644 10642 10642 10640 10636
10410 10424 10440 10456 10468 10479 10490 10499 10504 10507 10513 10518 10521 10525 10533 10541 10546 10552 10558 10568 10582 10589 10594 10597 10603 10606 10610 10611 10612 10619 10623 10627 10625 10627 10630 10632 10631 10630 10629 10627 10628 10627 10624
10395 10406 10428 10446 10456 10466 10475 10483 10489 10492 10497 10498 10501 10503 10508 10519 10525 10535 10542 10549 10563 10572 10577 10580 10584 10590 10590 10589 10589 10597 10605 10606 10603 10607 10612 10615 10614 10615 10613 10612 10610 10611 10609
10386 10399 10417 10431 10442 10451 10460 10468 10474 10477 10480 10483 10485 10487 10491 10500 10506 10515 10519 10526 10533 10543 10553 10559 10562 10564 10566 10567 10569 10580 10586 10582 10584 10587 10592 10597 10598 10598 10596 10594 10593 10590 10592
10379 10389 10402 10414 10426 10437 10447 10454 10458 10461 10463 10467 10470 10472 10475 10480 10487 10491 10496 10503 10507 10516 10527 10532 10538 10538 10542 10535 10542 10551 10556 10559 10563 10567 10573 10579 10579 10579 10576 10575 10576 10574 10573
10372 10382 10392 10403 10414 10423 10431 10438 10442 10444 10446 10450 10454 10456 10461 10463 10465 10469 10473 10479 10484 10492 10503 10508 10512 10516 10515 10515 10522 10528 10535 10539 10543 10548 10555 10559 10558 10558 10557 10557 10556 10556 10553
10370 10376 10383 10392 10400 10408 10414 10419 10423 10426 10431 10431 10435 10437 10441 10445 10449 10450 10452 10456 10460 10465 10474 10481 10487 10492 10494 10496 10499 10502 10508 10514 10520 10527 10532 10535 10536 10539 10541 10536 10537 10536 10533
10368 10373 10378 10384 10391 10394 10399 10402 10407 10410 10414 10415 10418 10421 10425 10428 10429 10432 10435 10437 10438 10440 10446 10452 10458 10464 10466 10471 10475 10478 10483 10489 10497 10502 10506 10509 10515 10518 10521 10515 10515 10515 10515
10368 10370 10374 10377 10379 10383 10386 10390 10393 10395 10396 10398 10400 10403 10406 10408 10411 10412 10415 10416 10416 10418 10422 10427 10432 10437 10441 10448 10452 10458 10460 10465 10473 10477 10481 10483 10489 10495 10496 10494 10491 10495 10495
10367 10369 10370 10371 10374 10376 10378 10378 10378 10379 10380 10381 10383 10384 10386 10388 10391 10392 10395 10398 10398 10399 10399 10401 10406 10410 10415 10418 10425 10430 10438 10446 10448 10449 10453 10459 10461 10470 10471 10472 10469 10470 10470
10363 10364 10365 10365 10365 10364 10364 10364 10365 10367 10367 10366 10366 10367 10369 10370 10372 10373 10376 10377 10378 10379 10381 10381 10385 10389 10392 10395 10399 10404 10410 10418 10423 10427 10428 10431 10434 10440 10444 10443 10443 10445 10444
10358 10357 10356 10356 10356 10356 10354 10353 10353 10352 10351 10351 10352 10351 10351 10351 10352 10354 10355 10356 10358 10359 10360 10364 10365 10366 10369 10372 10373 10373 10378 10383 10392 10396 10401 10404 10407 10414 10413 10415 10414 10417 10418
10350 10349 10348 10347 10347 10347 10346 10345 10344 10341 10340 10338 10336 10335 10334 10333 10334 10334 10334 10334 10334 10336 10337 10340 10340 10341 10342 10344 10346 10347 10348 10349 10353 10363 10370 10374 10378 10380 10386 10388 10389 10388 10389
10345 10343 10341 10338 10336 10333 10332 10330 10328 10325 10322 10320 10318 10317 10316 10316 10315 10314 10314 10313 10313 10314 10315 10317 10317 10316 10317 10318 10318 10318 10319 10321 10323 10328 10335 10343 10347 10351 10355 10360 10361 10361 10361
10344 10340 10336 10332 10329 10326 10321 10317 10313 10309 10305 10302 10300 10298 10296 10295 10294 10294 10295 10295 10295 10295 10295 10294 10294 10294 10294 10294 10293 10291 10294 10297 10299 10304 10308 10312 10317 10321 10325 10328 10331 10332 10332
10348 10343 10338 10333 10327 10321 10316 10310 10304 10298 10293 10288 10284 10280 10278 10276 10274 10272 10271 10270 10269 10270 10270 10270 10269 10269 10270 10270 10269 10269 10271 10274 10277 10281 10285 10288 10290 10293 10296 10298 10301 10302 10304
10347 10342 10336 10330 10324 10317 10310 10302 10295 10288 10281 10274 10268 10264 10260 10255 10251 10248 10246 10243 10243 10242 10242 10243 10244 10244 10244 10245 10246 10247 10250 10252 10255 10257 10260 10263 10265 10267 10268 10269 10270 10270 10272
10341 10334 10328 10322 10315 10309 10302 10294 10287 10279 10272 10265 10257 10250 10243 10237 10232 10227 10223 10219 10217 10215 10215 10215 10216 10217 10217 10218 10220 10223 10225 10228 10230 10233 10235 10237 10239 10241 10242 10243 10243 10243 10243
10333 10327 10319 10313 10306 10299 10292 10284 10277 10270 10262 10254 10247 10239 10231 10223 10215 10210 10206 10200 10195 10192 10190 10190 10189 10189 10190 10191 10192 10193 10196 10199 10203 10205 10207 10209 10211 10213 10214 10214 10215 10214 10213